User: anonymous   Login
Location: Wildcat Hills Observatory
(41.6350°N, 103.6812°W)
Time: 09:52:13
(UTC-06:00)
Language:

Cosmos 1634 Rocket - Orbit

View from above orbital plane
View from above orbital plane
View from above satellite
View from above satellite

Ground track
Ground track

The orbit data is extracted from the following two-line orbital elements,

1 15598U 85022B   16176.21293069 -.00000030  00000-0 -45852-4 0  9991
2 15598  82.9358  13.1826 0022925  33.4742  85.2615 13.76542732571212
Epoch (UTC): 24 June 2016 05:06:37
Eccentricity: 0.0022925
inclination: 82.9358°
perigee height: 959 km
apogee height: 993 km
right ascension of ascending node: 13.1826°
argument of perigee: 33.4742°
revolutions per day: 13.76542732
mean anomaly at epoch: 85.2615°
orbit number at epoch: 57121

The dashed part of the orbit path shows where the satellite is in the earth's shadow,  

DLR